Flag for U.S.A. Weather past 2 weeks in Vevay, Indiana, U.S.A.

Now
82 °F

Mostly cloudy.


Feels Like: 87 °F
Forecast: 71 / 88 °F
Wind: 7 mph from Southwest

Location: Cincinnati / Northern Kentucky International Airport

Current Time: Sep 1, 2014 at 7:42:33 PM

Latest Report: Sep 1, 2014 at 6:52 PM


Visibility: 9 mi

Pressure: 29.90 "Hg

Humidity: 72%

Dew point: 72 °F

Location of VevayLocation

Historic Weather in Vevay — Graph

°F

Vevay temperature yesterday

Maximum temperature yesterday: 80 °F (at 3:52 PM)
Minimum temperature yesterday: 70 °F (at 11:52 PM)
Average temperature yesterday: 74 °F

Past Weeks' High & Low Weather Summary

 TemperatureHumidityPressure
High91 °F (Aug 27, 3:52 PM)100% (Aug 23, 7:03 AM)30.13 "Hg (Aug 23, 7:03 AM)
Low64 °F (Aug 20, 5:52 AM)46% (Aug 25, 3:52 PM)29.78 "Hg (Aug 18, 6:52 PM)
Average77 °F76%29.98 "Hg
* Reported Aug 17 5:52 PM — Sep 1 5:52 PM, Vevay, Weather by CustomWeather, © 2014

Note: Actual official high and low records may vary slightly from our data, if they occured in-between our weather recording intervals... More about our weather records

Advertising

Vevay weather history for previous 24 hours

 ConditionsComfort  
Time TempWeatherWind HumidityBarometerVisibility
5:52 PM
Sep 1
84 °FBroken clouds.12 mph63%29.89 "Hg9 mi
4:52 PM84 °FBroken clouds.14 mph61%29.89 "Hg10 mi
3:52 PM84 °FBroken clouds.13 mph65%29.90 "Hg10 mi
2:52 PM83 °FBroken clouds.12 mph72%29.90 "Hg10 mi
1:52 PM76 °FBroken clouds.6 mph85%29.92 "Hg10 mi
12:52 PM81 °FMostly cloudy.17 mph72%29.93 "Hg10 mi
11:52 AM81 °FBroken clouds.12 mph74%29.94 "Hg10 mi
10:52 AM78 °FBroken clouds.9 mph84%29.98 "Hg8 mi
9:52 AM74 °FLight rain. Fog.8 mph91%29.98 "Hg6 mi
8:52 AM75 °FLight rain. Fog.8 mph88%29.98 "Hg2 mi
7:52 AM74 °FFog.7 mph91%29.98 "Hg6 mi
6:52 AM74 °FOvercast.8 mph91%29.98 "Hg7 mi
5:52 AM74 °FFog.7 mph91%29.98 "Hg6 mi
4:52 AM74 °FFog.3 mph91%29.98 "Hg6 mi
3:52 AM73 °FLow clouds.3 mph94%29.98 "Hg7 mi
2:52 AM73 °FMostly cloudy.6 mph94%29.97 "Hg9 mi
1:52 AM72 °FMostly cloudy.5 mph93%29.98 "Hg9 mi
1:02 AM72 °FMostly cloudy.5 mph94%30.00 "Hg10 mi
12:52 AM71 °FPassing clouds.5 mph93%29.97 "Hg10 mi
11:52 PM
Aug 31
70 °FClear.3 mph93%29.97 "Hg10 mi
10:52 PM72 °FClear.3 mph87%29.98 "Hg10 mi
9:52 PM72 °FPassing clouds.6 mph87%29.98 "Hg10 mi
8:52 PM73 °FScattered clouds.6 mph84%29.97 "Hg10 mi
7:52 PM76 °FScattered clouds.6 mph77%29.96 "Hg10 mi
Weather by CustomWeather, © 2014

See weather overviewHow to use our weather pages